THOR ABLESTAR DEB, 138

Orbit data source: Space-Track

THOR ABLESTAR DEB, 138 is space debris in LEO originally from a launch on Thu, 29 Jun 1961 UTC launched from the Air Force Eastern Test Range (AFETR). Debris objects in space refer to the collection of defunct objects orbiting the Earth. Examples of debris include non-operational satellites, rocket bodies, and fragments generated from explosions, collisions, or faulty payload assembly.

Loading next visibility...
Identifier
138, 1961-015Y
Orbit
LEO
Country
Flag of USUS
Related business
Manufacturer
Unknown
Mission
Spacecraft
Bus & Motor
Unknown
Mass
Unknown
Launch date (UTC)
1961-06-29 (64 years ago)
Launch vehicle
Unknown
Launch site
Air Force Eastern Test Range (AFETR)
Object type
Payload
Rocket body
Debris
Shape & HBR
Unknown shape, 0.3 m
Radar Cross Section
Small (<0.1 m²)

Expand to show TLE details & history
Last TLE update: 10 hours ago

TLE from 10 hours ago
0 THOR ABLESTAR DEB
1 00138U 61015Y   25340.95646231  .00001026  00000-0  68662-3 0  9995
2 00138  67.1539 215.1421 0035655 270.1370  89.5633 14.04503479275831
Epoch: 2025-12-06T22:57Z
TLE epoch observation values (Epoch: 2025-12-06T22:57:18.343Z)
Latitude
-0.00002°
Longitude
154.8389°
Altitude
880.254 km
Speed
7.413 km/s
True Right ascension
14h 20m 34s
True Declination
0° 00' 00"
Sunlit
Object was in daylight at epoch
Visualization orbit readout
Latitude
Unknown
Longitude
Unknown
Altitude
Unknown
Speed
Unknown
Apparent Right ascension
Unknown
Apparent Declination
Unknown
Sunlit
N/A
Visualization observer readout
Local Sidereal Time
06:37:25
Azimuth
Unknown
Elevation
Unknown
Doppler factor
Unknown
Orbital elements
Apogee altitude
902.451 km
Perigee altitude
850.718 km
Semi-major axis
7,254.721 km
Eccentricity
0.00357
Inclination
67.1539°
RAAN
215.1421°
Arg. of periapsis
270.137°
True anomaly
89.97187°
Mean anomaly
89.5633°
Eccentric anomaly
89.76759°
Mean motion
3.51247 °/min
Orbital period
102.49 mins
BSTAR
0.00068662

Documentation

Showing up to 5 results
|